This demonstration page uses our WeatherBlox Daily Observations layout. Learn more.

Hourly Observations for February 17, 2019

Temp ( °F °C ) Dew Point ( °F °C ) Humidity (%) Winds ( mph kmh ) Pressure ( in mb ) Visibility ( mi km ) Precip ( " mm )
12:01 am 00:01 Cloudy with Light Snow 18 -7.8 14 -10 84 84 NNE 7 11 29.9 1012 3 4.82802 0 0.0254
12:54 am 00:54 Cloudy with Light Snow 18 -7.8 14 -10 84 84 NNE 5 7 29.85 1011 5 8.0467 0 0.0254
1:54 am 01:54 Cloudy with Light Snow 17 -8.3 14 -10 88 88 N 5 7 29.86 1011 3 4.82802 0 0.0254
2:03 am 02:03 Cloudy with Light Snow 17 -8.3 14 -10 88 88 N 6 9 29.9 1013 2.5 4.02335 0 0.0254
2:51 am 02:51 Cloudy with Light Snow 18 -8 14 -10 86 86 N 8 13 29.9 1013 3 4.82802 0.01 0.254
2:54 am 02:54 Cloudy with Light Snow 17 -8.3 14 -10 88 88 N 7 11 29.85 1011 3 4.82802 0.01 0.254
3:54 am 03:54 Cloudy with Light Snow 17 -8.3 14 -10 88 88 NNW 9 15 29.84 1010 3 4.82802 0 0.0254
4:50 am 04:50 Cloudy with Light Snow 18 -8 12 -11 79 79 NNW 8 13 29.91 1013 5 8.0467 0 0.0254
4:54 am 04:54 Cloudy with Light Snow 17 -8.3 13 -10.6 84 84 NNW 7 11 29.86 1011 5 8.0467 0 0.0254
5:08 am 05:08 Cloudy with Light Snow 17 -8.3 13 -10.6 84 84 NNW 8 13 29.91 1013 5 8.0467 0 0.0254
5:32 am 05:32 Cloudy with Light Snow 17 -8.3 13 -10.6 84 84 NW 9 15 29.92 1013 2.5 4.02335 0 0.0254
5:54 am 05:54 Cloudy with Light Snow 17 -8.3 13 -10.6 84 84 NNW 10 17 29.87 1011 3 4.82802 0.01 0.254
6:10 am 06:10 Cloudy with Light Snow 17 -8.3 13 -10.6 84 84 NNW 12 19 29.92 1013 4 6.43736 0 0.0254
6:54 am 06:54 Cloudy 17 -8.3 13 -10.6 84 84 NNW 7 11 29.89 1012 10 16.0934 0 0.0254
7:54 am 07:54 Cloudy 18 -7.8 13 -10.6 81 81 NW 9 15 29.92 1013 9 14.48406 0 0
8:54 am 08:54 Cloudy with Light Snow 18 -7.8 13 -10.6 81 81 NW 10 17 29.94 1014 6 9.65604 0 0.0254
9:54 am 09:54 Cloudy with Light Snow 20 -6.7 14 -10 78 78 NW 13 20 29.96 1015 4 6.43736 0 0.0254
10:54 am 10:54 Sunny 21 -6.1 13 -10.6 71 71 NNW 15 24 29.97 1015 10 16.0934 0 0.0254
11:54 am 11:54 Sunny 23 -5 14 -10 68 68 NW 14 22 30 1016 10 16.0934 0 0
12:54 pm 12:54 Sunny 23 -5 14 -10 68 68 NW 15 24 30 1016 10 16.0934 0 0
1:22 pm 13:22 Mostly Cloudy with Haze 24 -4.4 14 -10 65 65 NW 16 26 30.03 1017 6 9.65604 0 0
1:54 pm 13:54 Cloudy 24 -4.4 15 -9.4 68 68 NNW 15 24 30.01 1016 10 16.0934 0 0
2:54 pm 14:54 Cloudy 22 -5.6 14 -10 71 71 NW 16 26 30.03 1017 8 12.87472 0 0
3:54 pm 15:54 Cloudy 22 -5.6 14 -10 71 71 NW 16 26 30.06 1018 10 16.0934 0 0
4:20 pm 16:20 Cloudy 22 -5.6 14 -10 71 71 NW 17 28 30.11 1020 8 12.87472 0 0
4:31 pm 16:31 Cloudy with Light Snow 22 -5.6 14 -10 71 71 NW 17 28 30.12 1020 4 6.43736 0 0.0254
4:54 pm 16:54 Cloudy with Light Snow 22 -5.6 15 -9.4 75 75 NW 16 26 30.09 1019 2.5 4.02335 0 0.0254
5:01 pm 17:01 Cloudy with Light Snow 21 -6.1 14 -10 74 74 NNW 18 30 30.13 1020 3 4.82802 0 0.0254
5:54 pm 17:54 Cloudy 20 -6.7 12 -11.1 71 71 NNW 18 30 30.13 1020 8 12.87472 0 0.0254
6:54 pm 18:54 Cloudy 20 -6.7 13 -10.6 74 74 NW 15 24 30.18 1022 8 12.87472 0 0.0254
7:54 pm 19:54 Cloudy with Light Snow 18 -7.8 13 -10.6 81 81 NW 12 19 30.2 1023 5 8.0467 0 0.0254
8:54 pm 20:54 Cloudy 18 -7.8 12 -11.1 77 77 NW 13 20 30.23 1024 10 16.0934 0 0.0254
9:54 pm 21:54 Partly Cloudy 16 -8.9 10 -12.2 77 77 NW 12 19 30.27 1025 10 16.0934 0 0
10:54 pm 22:54 Clear 15 -9.4 9 -12.8 77 77 NW 9 15 30.29 1026 10 16.0934 0 0
11:54 pm 23:54 Clear 14 -10 9 -12.8 80 80 NW 8 13 30.31 1027 10 16.0934 0 0

Powered by AerisWeather